Location: *
(49.1466°N, 1.6216°E)
Time: 07:01:13
(UTC+00:00)

Cosmos 2278 Rocket - Pass Details

Date: 25 September 2023
Orbit: 842 x 844 km, 71.0° (Epoch: 10 December)

Event Time Altitude Azimuth Distance (km) Brightness Sun altitude
Rises 18:55:02 0° 334° (NNW) 3,415 6.0 -12.1°
Reaches altitude 10° 18:57:44 10° 344° (NNW) 2,476 5.0 -12.5°
Maximum altitude 19:02:53 34° 49° (NE) 1,358 3.0 -13.3°
Enters shadow 19:06:05 20° 101° (E) 1,866 3.3 -13.8°
